Location: Prague
(50.0830°N, 14.4670°E)
Time: 01:48:11
(UTC+01:00)

Oscar 11 - Pass Details

Date: 02 December 2021
Orbit: 611 x 625 km, 97.6° (Epoch: 17 January)

Event Time Altitude Azimuth Distance (km) Brightness Sun altitude
Rises 17:56:40 0° 216° (SW) 2,897 11.3 -17.5°
Reaches altitude 10° 17:59:58 10° 244° (WSW) 1,999 10.9 -18.0°
Maximum altitude 18:02:05 13° 273° (W) 1,794 10.5 -18.4°
Drops below altitude 10° 18:04:12 10° 302° (WNW) 2,009 10.3 -18.7°
Sets 18:07:33 0° 330° (NNW) 2,923 10.8 -19.2°
